RH
17 18 18 19 19 20 20 16 18 15 16 25 36 49 50 48 55 51 35 33 37 32 33 34 40 54 58 60 64 71 76 76 82 80 89 99 92 84 78 87 90 84 85 85 83 82 77 69 67 67 62 59 62 64 66 67 68 68 66 66 65 66 67 65 64 65 65 66 67 65 65 66 65 64 64 67 67 71 67 65 73 69 64 64 63 64 66 67 70 68 66 69 71 70 72 70 69
17 18 18 21 22 20 16 13 18 15 23 31 34 50 52 43 50 55 42 35 37 32 35 41 46 55 56 58 58 66 83 87 87 91 98 97 84 69 68 84 87 81 81 84 84 81 76 71 70 69 67 65 64 65 65 68 68 67 66 66 65 65 65 64 66 70 69 67 66 63 64 65 64 62 64 67 64 69 70 71 76 66 63 65 64 67 69 68 68 67 68 69 66 67 70 70 71
18 18 16 18 18 15 14 13 15 17 26 31 37 44 42 50 52 46 38 31 34 40 47 49 50 51 52 62 66 69 83 90 90 93 96 94 80 63 68 82 86 82 79 83 85 81 76 72 71 70 71 69 66 65 67 70 68 68 66 65 65 66 65 64 69 71 69 65 63 62 61 63 62 63 66 69 64 62 65 73 75 65 60 63 66 70 69 68 68 67 68 68 65 68 71 70 70
17 16 16 16 13 12 13 13 14 17 23 31 47 49 50 64 59 47 39 35 38 48 58 56 55 57 58 67 73 74 82 91 91 95 95 92 83 70 74 79 82 82 80 84 84 81 75 71 71 71 73 70 67 66 66 68 67 67 64 64 64 65 65 66 70 69 66 64 61 60 58 60 61 63 65 69 68 63 67 77 81 72 67 69 71 71 69 68 69 68 68 67 65 68 70 72 72
16 15 16 15 13 12 11 13 15 19 27 36 53 57 63 70 66 64 46 39 46 49 54 53 57 63 68 74 74 77 86 91 91 97 93 91 89 80 80 77 75 78 80 82 82 81 73 69 71 71 70 67 65 65 64 65 65 64 63 64 64 65 66 69 72 67 63 60 59 57 52 54 61 65 65 67 69 68 73 80 83 81 78 78 77 74 72 69 68 68 69 68 62 58 58 65 73
16 16 14 14 11 11 11 16 18 25 30 33 50 51 56 65 63 65 43 40 57 53 49 48 56 62 74 84 84 88 91 89 90 96 89 88 92 84 82 77 74 79 82 84 84 79 70 67 70 68 66 66 67 67 66 65 65 65 65 66 66 66 67 69 69 62 58 58 59 55 48 47 58 66 66 67 68 69 74 79 82 82 82 81 78 75 73 69 66 66 67 65 57 51 46 45 56
15 14 12 12 10 11 12 22 28 32 32 31 59 56 46 60 60 63 51 50 64 59 53 51 55 61 74 80 86 96 91 88 88 90 88 88 90 86 84 79 75 78 81 84 83 76 67 66 68 67 67 70 72 72 69 66 66 65 66 66 66 67 67 66 62 57 57 58 57 53 49 46 52 62 65 66 68 71 74 77 80 79 79 77 75 73 71 67 64 63 58 55 52 51 47 36 33
14 13 11 11 10 14 13 26 41 43 42 35 54 50 41 59 54 54 50 47 55 53 52 50 52 63 74 73 81 93 87 88 88 86 90 88 87 83 83 81 76 76 80 82 82 76 66 65 68 69 71 74 74 73 70 67 66 65 65 66 67 68 66 62 58 58 58 56 53 52 52 48 46 53 62 66 67 71 74 76 77 76 75 74 73 71 69 64 60 55 47 48 51 50 49 43 33
13 11 10 12 12 22 22 26 42 56 59 45 50 47 52 65 44 39 44 42 45 47 48 46 51 62 72 73 82 91 85 88 91 90 88 85 85 82 81 82 79 79 81 81 81 76 68 66 68 69 70 73 73 71 69 68 68 67 67 67 68 67 63 60 58 58 58 54 53 54 54 52 49 47 54 64 69 71 73 76 77 76 74 74 73 70 67 63 58 52 44 46 50 49 46 45 43
11 10 9 11 14 27 30 27 43 66 70 62 62 55 64 67 37 35 45 44 45 49 52 51 56 61 67 72 82 90 87 88 90 90 85 83 84 83 84 83 83 81 81 83 79 76 74 69 66 69 70 71 70 68 67 66 66 66 67 66 66 63 61 58 56 56 55 52 52 54 55 57 58 51 45 50 63 73 74 73 75 77 78 76 74 71 69 65 62 57 48 47 51 53 49 48 50
10 10 8 12 19 24 28 36 52 64 66 71 65 47 60 60 37 37 42 45 46 48 52 55 61 65 68 73 86 93 89 87 87 86 84 85 85 84 84 84 85 80 78 83 79 76 77 74 69 70 71 70 69 66 63 61 61 62 63 63 61 59 57 55 55 55 53 52 54 57 60 62 64 62 51 40 46 62 72 75 76 77 79 77 73 72 73 70 69 65 55 50 53 56 55 55 56
10 9 11 16 20 23 32 45 55 60 64 72 58 38 50 48 36 41 41 45 46 47 50 53 59 63 66 73 87 94 88 87 87 86 85 88 87 83 82 82 83 79 80 80 75 74 77 79 79 74 71 70 67 65 63 60 59 60 62 63 60 58 56 56 56 56 56 55 56 60 66 68 67 65 60 49 40 42 49 58 66 72 76 75 72 71 71 73 73 68 61 56 57 61 61 60 61
10 11 19 23 20 29 44 45 47 61 64 61 52 38 42 40 37 42 43 45 45 49 51 53 58 58 68 77 87 93 88 88 88 84 85 90 85 81 83 82 81 81 82 77 71 76 80 82 85 81 74 67 63 63 64 62 60 60 63 63 61 59 57 58 59 59 59 58 58 61 66 69 67 63 59 57 52 47 42 41 43 49 53 54 58 59 58 64 71 71 67 63 62 65 65 65 62
9 10 19 25 23 32 41 40 44 55 54 52 52 39 37 41 40 41 44 49 51 50 50 56 58 58 71 78 84 93 89 86 85 79 83 86 77 78 83 83 82 83 84 77 76 86 88 84 83 80 69 63 61 61 63 63 60 60 60 60 59 58 57 59 60 59 58 61 63 63 67 69 66 63 60 58 60 59 57 54 49 45 43 42 42 42 40 44 57 68 68 65 64 64 66 67 65
10 11 20 28 27 32 35 38 46 49 48 50 47 37 37 42 42 44 44 50 58 55 55 61 59 61 72 76 83 92 87 80 79 79 82 82 74 76 82 83 85 87 84 76 78 85 85 80 77 74 67 67 69 65 65 65 62 59 58 57 57 57 57 59 60 59 58 60 63 65 67 67 61 60 62 59 60 62 62 62 61 60 57 55 52 48 46 42 44 53 55 54 54 55 55 56 56
13 16 25 32 32 44 47 40 45 48 44 42 41 40 44 46 43 46 45 49 61 64 66 68 66 71 78 82 86 87 86 81 80 84 84 83 79 79 83 84 86 87 80 77 81 78 75 77 76 74 69 70 73 70 69 67 64 59 56 55 55 56 56 56 56 55 57 59 63 64 61 61 58 58 60 57 59 63 63 63 61 62 63 63 63 61 60 57 52 51 50 49 50 50 49 50 51
17 20 24 32 40 57 57 40 44 48 41 42 46 47 50 51 45 46 49 52 61 66 71 73 74 80 82 84 83 82 85 82 81 85 87 89 85 82 86 86 87 86 81 85 86 77 73 75 75 73 68 69 73 72 69 67 65 61 59 58 56 56 55 52 48 45 48 53 58 59 57 59 57 57 59 55 58 63 66 72 70 66 65 63 63 64 63 64 63 59 58 56 55 56 57 58 57
19 24 29 37 46 54 49 35 37 40 39 45 48 46 46 47 42 44 48 52 59 62 66 71 76 83 86 85 80 79 79 77 80 84 91 94 87 86 90 87 86 86 89 92 85 79 74 68 72 73 70 73 74 70 69 69 68 67 67 66 64 65 61 54 48 43 41 47 51 53 56 56 54 56 56 55 60 62 67 74 74 70 69 66 62 62 63 65 67 66 66 65 63 63 64 64 63
22 39 47 43 36 37 35 30 31 36 40 41 41 41 41 41 39 42 48 54 58 60 63 66 73 81 85 87 85 83 79 79 86 88 92 91 84 88 88 84 84 85 93 92 80 77 72 65 70 71 70 74 71 71 76 79 76 78 82 79 77 75 73 71 65 55 45 45 49 50 60 59 54 59 56 60 66 61 63 66 67 71 71 69 66 62 62 64 68 68 67 71 72 74 75 73 70
26 48 53 37 26 28 32 33 34 36 39 36 37 40 40 42 42 43 50 58 60 63 66 65 72 79 81 87 88 87 85 89 94 91 90 86 83 87 85 83 85 86 92 90 79 74 69 62 65 67 65 68 73 78 82 84 80 81 86 84 83 80 79 79 75 73 57 45 52 58 68 65 56 62 60 58 61 53 50 54 62 73 74 73 72 68 67 66 67 67 66 70 73 76 77 75 69
25 34 33 24 22 28 28 34 41 39 37 36 38 41 41 44 46 45 47 58 65 68 72 70 77 82 81 85 84 85 87 92 93 88 87 84 84 86 80 82 85 85 88 86 78 72 65 59 62 66 62 65 77 80 79 81 80 81 79 76 79 77 74 72 70 78 66 43 50 60 62 64 64 67 65 57 60 61 54 53 60 69 75 76 77 78 76 71 70 72 73 71 71 72 71 72 71
23 21 21 20 24 29 26 33 42 37 34 35 38 41 43 46 50 51 53 63 71 74 78 76 79 84 84 85 85 87 89 92 89 83 84 79 81 85 80 83 82 80 82 77 74 71 62 59 63 68 70 75 80 77 78 81 80 80 75 70 72 71 69 70 67 73 72 49 42 53 53 65 81 77 73 73 73 76 70 67 65 64 72 76 77 80 77 73 75 78 77 73 72 72 71 72 72
20 21 21 22 24 28 27 31 35 33 34 37 40 43 46 50 54 58 62 69 74 79 81 79 81 82 80 80 83 86 89 90 83 80 82 73 73 81 81 81 77 77 78 68 68 66 57 58 64 73 79 81 80 76 78 77 74 75 72 70 70 69 68 69 68 69 75 60 44 61 62 56 75 80 76 77 75 74 70 70 69 66 69 72 74 75 74 75 77 77 76 74 73 73 73 74 73
20 22 22 24 24 26 28 30 31 32 37 41 41 41 43 48 55 61 66 71 76 80 80 80 82 79 74 74 77 82 88 88 80 81 81 71 69 76 76 79 80 81 74 62 61 60 53 56 66 77 77 74 79 77 75 73 73 74 70 70 69 70 71 66 68 65 68 67 49 56 61 46 60 77 67 64 72 71 68 70 69 69 67 65 68 67 68 72 72 73 73 71 70 70 71 74 74
21 23 23 24 25 27 29 30 32 33 35 40 41 40 43 48 55 61 68 74 76 78 82 81 78 75 72 73 76 78 84 86 83 83 77 72 76 78 76 80 86 85 77 72 73 70 66 66 65 69 65 66 78 77 74 74 72 73 68 68 68 70 72 66 66 63 63 67 47 37 52 50 55 69 57 54 72 70 68 72 67 68 68 64 65 62 62 62 60 65 67 66 66 66 67 69 68
21 23 24 24 25 27 28 32 35 35 35 39 40 41 43 47 56 64 71 76 77 78 82 79 77 78 74 74 79 79 82 84 82 79 73 74 76 76 78 84 89 87 84 84 84 83 83 78 64 58 56 62 77 79 77 75 71 73 68 66 69 69 69 64 63 64 63 59 41 31 47 55 54 59 53 57 75 73 69 69 67 70 69 68 67 61 62 60 57 58 59 60 62 62 62 63 62
21 23 24 24 26 27 29 32 34 35 36 37 40 44 44 44 53 67 76 78 76 77 81 80 77 79 78 77 79 79 81 81 79 78 77 79 76 76 82 87 88 85 83 80 81 81 79 73 62 57 54 57 74 81 79 76 73 74 69 67 71 71 69 66 64 64 65 58 47 38 42 57 64 57 53 59 67 71 73 66 68 72 68 69 63 60 67 65 59 58 57 57 58 60 60 61 60
22 24 25 26 25 27 30 31 34 35 35 35 39 45 47 45 53 67 78 78 71 72 80 80 76 77 80 78 77 77 74 72 75 78 82 84 82 83 84 83 79 76 77 76 74 69 63 63 65 65 60 64 74 77 78 77 73 73 72 69 69 72 71 69 68 65 65 65 63 52 42 52 63 60 63 66 55 58 73 72 69 68 68 65 54 64 72 62 60 61 59 56 56 59 58 58 58
22 23 28 31 28 29 34 33 33 32 33 34 36 50 56 50 55 65 74 75 67 72 81 78 75 76 75 73 77 76 68 67 70 72 78 81 81 82 81 77 72 68 71 73 71 67 63 64 70 72 70 76 79 75 79 80 75 75 75 73 69 70 71 67 67 66 66 67 65 63 57 55 62 71 79 80 66 59 68 72 69 65 68 58 50 72 67 49 61 66 59 57 57 60 58 58 57
27 26 30 37 37 34 33 33 31 29 33 34 36 60 69 54 55 62 67 71 69 76 82 77 76 77 74 73 76 77 70 68 70 69 71 74 78 80 77 74 69 66 72 78 77 75 71 65 71 78 74 75 76 76 80 77 76 76 73 74 72 71 71 68 66 65 66 67 64 66 69 66 67 76 82 81 77 75 74 74 70 64 68 58 55 73 56 45 68 68 58 55 57 62 59 59 58
33 32 30 36 42 40 35 33 32 30 34 34 38 63 69 52 54 62 61 64 71 77 77 73 71 71 74 75 73 75 73 70 71 71 70 71 75 78 78 78 75 74 81 87 87 84 78 71 79 87 78 72 73 77 75 67 71 75 73 75 76 77 75 72 70 69 69 70 70 70 73 72 69 72 76 74 70 74 77 75 72 67 69 67 68 71 48 50 76 74 63 49 47 62 62 59 58
33 38 43 43 41 39 35 32 29 30 32 30 39 60 61 46 46 55 58 60 66 74 76 76 73 69 73 75 71 72 73 71 71 71 72 72 74 77 80 83 82 84 89 90 87 86 83 78 84 82 71 69 71 74 72 65 69 74 75 76 77 80 78 76 74 71 74 75 76 77 78 78 73 69 70 70 67 69 73 73 73 71 69 71 77 75 60 64 77 75 72 54 45 62 66 61 59
33 43 60 52 38 41 39 32 28 29 31 30 39 52 52 43 40 45 53 59 64 71 76 76 77 73 70 73 71 71 72 70 71 73 72 73 75 79 83 85 88 89 86 78 71 75 77 73 73 68 64 71 69 69 71 68 72 75 75 76 76 76 75 77 77 74 77 78 76 77 79 77 73 71 69 67 66 66 68 71 73 74 72 72 74 77 77 80 79 73 75 68 60 67 68 64 63
38 49 69 51 37 47 44 37 32 28 33 36 39 44 45 42 40 41 45 53 61 68 70 69 71 70 68 71 69 69 73 72 76 78 75 77 81 83 84 85 87 81 69 60 59 66 70 65 64 65 66 68 64 65 70 70 73 75 73 73 71 70 72 75 74 73 72 70 70 73 75 73 72 74 73 70 68 66 66 67 70 73 73 72 71 74 76 79 81 76 74 76 78 79 72 65 64
39 49 74 59 42 43 39 39 36 31 36 41 42 44 46 43 41 42 42 47 56 62 64 61 61 62 65 70 66 69 77 76 80 81 77 80 82 84 84 80 79 67 52 53 57 57 58 58 59 62 63 61 61 64 64 64 66 65 66 67 62 62 70 73 72 73 70 68 71 74 75 74 78 77 75 77 75 72 72 68 70 72 71 71 68 71 73 74 77 76 74 75 77 77 75 70 63
31 32 52 49 40 39 37 39 35 35 42 43 46 48 47 48 46 47 47 47 51 58 60 58 61 62 65 70 70 74 81 80 82 80 73 71 73 81 82 77 76 65 52 55 59 57 60 62 60 60 61 62 69 68 63 65 65 64 66 67 63 63 67 66 68 67 61 58 56 56 56 55 63 62 56 65 71 71 72 71 71 69 69 70 68 68 69 71 73 74 76 74 71 69 73 74 66
29 30 36 31 33 38 35 34 35 46 53 44 43 47 48 50 47 48 52 49 49 56 60 60 64 67 67 70 70 75 82 83 83 79 71 69 72 78 78 73 73 67 62 64 67 70 69 67 69 70 67 69 74 70 68 69 65 64 67 66 63 61 60 58 59 58 54 57 52 49 55 51 55 59 52 58 66 59 52 55 64 67 70 73 72 72 70 69 69 70 73 74 72 68 66 68 67
34 42 41 32 31 33 31 31 35 45 55 49 43 48 51 49 45 48 50 47 48 53 59 62 64 66 68 69 70 74 80 80 78 78 77 76 74 72 70 68 70 71 73 74 76 77 71 71 77 73 66 65 66 64 64 67 64 64 67 69 69 66 66 66 66 66 66 73 64 50 63 68 64 69 68 69 74 66 56 54 59 63 69 72 70 70 71 70 66 68 73 73 70 69 64 63 66
31 33 34 33 30 32 31 33 34 35 45 50 45 47 51 47 44 46 46 45 47 49 53 57 60 64 67 71 76 77 80 81 80 79 77 74 71 70 71 72 75 78 78 77 77 76 70 67 65 60 60 61 62 64 61 60 64 71 73 73 74 72 72 73 71 70 68 76 69 45 55 73 69 68 68 67 70 72 74 74 69 64 65 71 70 65 64 68 69 71 77 76 74 74 70 64 62
28 27 33 37 31 33 36 37 41 36 37 41 39 45 52 48 45 46 44 44 47 47 50 53 55 60 64 70 77 79 81 83 84 84 79 72 69 72 76 79 82 78 73 72 72 71 66 61 60 66 74 73 69 71 67 56 49 56 65 69 71 70 70 68 65 63 61 71 75 51 50 68 69 66 64 61 64 67 72 77 78 76 73 75 76 71 67 71 75 76 81 86 86 83 78 71 64
24 24 32 40 33 30 34 39 43 34 31 36 41 53 60 54 51 49 45 44 45 47 49 51 52 56 62 67 74 80 80 75 77 83 84 79 74 76 80 82 80 72 71 74 72 71 72 72 72 70 70 70 69 70 70 66 51 41 47 59 65 67 67 63 60 62 58 65 74 60 52 63 66 64 58 54 59 65 69 70 72 78 79 77 77 76 72 70 72 76 83 92 93 88 85 82 72
25 26 28 33 32 26 27 35 41 42 44 39 40 59 66 55 51 50 45 43 45 45 46 49 51 54 60 66 72 78 78 74 75 81 85 83 80 84 85 80 76 73 77 80 77 77 80 79 72 58 55 63 74 74 66 67 67 59 56 62 64 64 66 65 63 67 62 60 68 63 58 64 64 63 60 54 55 63 67 67 69 73 74 76 77 77 73 71 71 73 77 82 86 90 90 89 81
31 33 26 23 24 24 27 35 44 53 52 37 34 54 64 57 54 50 45 44 44 44 44 46 49 53 59 63 67 71 73 76 79 82 86 82 80 84 83 79 78 79 79 79 78 78 78 79 74 67 66 66 69 70 60 59 70 72 69 69 68 63 64 65 62 65 62 57 61 60 56 59 57 56 57 54 57 64 65 64 67 69 70 73 77 77 76 77 76 72 72 72 76 85 91 95 90
26 28 30 25 23 25 28 32 40 42 39 35 33 43 56 60 54 45 42 46 47 45 45 46 49 55 59 61 64 66 69 75 77 79 80 78 77 78 77 77 77 77 78 78 78 77 77 79 79 78 79 69 59 60 62 63 66 67 65 63 65 63 59 61 60 60 57 56 60 60 57 59 58 54 53 55 61 65 64 64 67 68 70 73 75 77 77 78 79 77 78 78 73 72 80 93 95
18 17 20 19 19 23 26 31 35 35 40 43 36 37 53 59 48 40 41 46 50 49 46 45 47 52 57 61 64 63 64 68 70 72 74 74 75 74 73 75 76 77 78 78 78 78 78 78 77 77 77 73 66 64 66 63 59 61 62 59 62 63 58 57 58 56 53 54 58 58 55 57 56 54 55 61 65 64 64 67 68 69 72 74 73 75 77 79 81 80 77 74 69 62 66 83 96
15 12 19 29 30 27 27 31 33 39 46 46 38 40 54 59 49 42 45 47 50 50 45 43 46 50 52 55 57 56 57 59 62 67 71 72 73 74 75 76 77 78 77 77 77 76 78 78 75 74 72 72 72 69 68 67 62 59 59 58 59 60 59 56 55 54 53 55 57 54 53 54 52 54 60 65 64 64 66 65 65 71 73 72 72 71 70 68 66 65 62 59 58 55 55 64 80
15 20 36 51 51 46 46 43 43 53 52 40 36 36 42 54 52 42 44 45 44 47 47 45 47 48 47 47 48 49 50 52 57 63 68 71 73 74 75 74 75 76 76 77 75 75 79 78 75 71 69 71 71 70 70 69 68 63 59 60 61 61 61 59 58 57 55 59 58 53 53 54 53 58 64 66 64 65 69 66 65 72 71 69 72 64 56 56 52 52 55 54 56 57 55 56 60
19 32 48 61 66 67 68 64 62 65 54 36 30 29 36 53 51 40 38 37 37 43 47 46 44 43 43 42 43 45 47 50 55 62 67 72 73 72 72 72 72 72 73 76 77 77 77 74 74 72 70 72 71 71 70 65 69 73 68 65 67 67 63 59 60 60 58 59 56 54 56 56 59 64 67 68 66 67 73 71 70 72 68 70 72 59 49 54 55 56 59 58 59 61 61 64 63
20 32 48 70 76 64 56 55 59 60 49 33 29 33 40 47 44 36 34 34 35 37 39 42 43 41 42 42 43 45 47 52 57 63 68 69 70 70 69 70 69 67 68 71 73 74 71 70 71 70 69 68 64 66 67 62 65 67 62 60 61 61 57 53 55 57 56 56 54 54 57 59 63 69 69 70 69 70 73 68 69 71 67 70 69 54 47 51 53 57 63 64 67 69 68 73 76
20 25 35 52 56 48 44 42 46 52 44 28 24 34 44 47 42 35 33 34 35 35 35 39 40 40 42 42 44 47 51 57 61 65 69 68 68 69 68 69 68 65 66 67 68 69 69 70 69 69 69 64 58 61 64 59 56 52 45 48 51 51 51 49 53 56 53 54 55 56 61 63 67 70 69 71 72 72 69 62 66 70 66 70 68 52 45 46 45 49 57 65 75 78 76 76 76
20 21 25 31 32 36 39 34 36 49 50 35 24 33 49 56 46 33 32 33 33 35 36 38 39 41 42 42 45 50 54 60 64 67 67 66 66 66 66 69 70 70 69 68 68 67 69 70 68 70 71 65 57 57 58 51 48 46 40 44 48 48 50 47 48 51 51 58 60 58 65 66 67 70 68 71 73 72 71 65 66 68 64 69 67 51 45 45 43 44 48 61 77 82 79 77 75
20 16 23 30 26 25 27 24 26 41 54 44 32 38 45 46 38 28 30 32 31 34 36 38 41 40 42 45 49 53 57 61 65 66 64 63 63 62 62 64 68 71 71 70 70 68 67 64 60 61 63 61 54 50 51 46 42 45 42 42 44 42 40 34 32 35 37 55 65 61 65 68 68 70 66 68 70 68 71 66 64 66 65 70 65 46 43 44 42 42 43 53 69 78 81 80 81
22 20 24 25 17 14 22 27 28 43 55 40 36 48 44 39 38 30 30 33 31 32 35 38 40 40 44 47 49 53 58 62 63 61 59 59 61 61 59 59 60 63 65 68 69 66 65 60 51 50 53 53 49 43 46 44 40 43 39 32 28 26 24 19 21 24 20 37 60 61 64 68 66 67 65 66 66 65 69 66 64 66 67 74 67 46 41 42 40 41 40 48 64 77 86 85 84
19 22 20 19 16 13 21 29 32 50 60 41 36 47 48 50 48 35 33 38 34 31 33 37 39 42 46 46 48 55 60 63 60 58 57 56 56 55 53 54 54 55 56 58 58 55 58 58 47 43 45 47 45 42 43 44 41 40 30 18 16 16 18 15 16 19 12 24 52 63 65 66 64 64 64 65 64 64 67 65 65 67 69 79 72 50 41 37 35 37 35 45 61 73 86 89 87
14 16 12 16 24 21 24 31 31 41 51 44 39 41 48 56 48 36 39 40 36 34 34 36 38 41 45 46 49 54 59 61 56 55 54 51 51 49 46 47 45 46 47 47 48 43 44 51 45 38 40 42 43 42 43 45 43 39 25 12 15 17 17 16 11 13 15 26 52 67 66 65 64 63 62 63 63 64 67 65 64 67 70 76 70 54 46 39 32 31 32 45 60 70 81 87 89
9 10 8 12 19 19 24 28 28 34 40 46 51 48 48 50 39 33 38 36 35 37 36 37 39 42 45 46 48 51 53 54 52 52 51 49 50 46 43 43 39 41 44 44 46 39 37 45 42 37 37 39 41 41 43 45 46 46 34 19 24 27 24 21 14 20 36 45 60 73 69 66 67 63 64 65 61 62 67 65 65 68 70 69 66 59 54 45 32 26 32 49 63 71 80 84 87
12 14 13 12 15 19 23 21 26 39 40 42 53 55 46 38 30 28 32 34 35 35 36 39 40 42 44 44 47 49 49 51 50 51 50 48 48 45 45 45 41 41 42 44 47 41 37 41 41 40 38 38 41 40 43 46 45 50 44 34 42 40 35 38 28 32 57 65 69 74 68 67 68 63 66 66 61 63 67 67 68 69 67 67 66 62 55 44 30 26 40 57 68 77 84 84 85
16 18 17 18 21 23 25 24 30 44 44 36 44 56 49 34 29 28 29 33 33 31 34 39 40 42 43 45 47 48 49 51 50 48 47 46 44 42 43 43 43 42 40 42 45 42 41 41 41 44 41 41 44 41 45 47 45 52 47 41 48 40 42 59 46 43 69 74 72 75 68 67 70 67 69 68 65 69 69 69 72 69 67 70 68 63 54 39 27 33 52 67 76 85 91 91 91
Wind_Speed
8 11 14 13 13 12 14 13 8 6 5 3 4 4 2 5 3 6 2 3 3 4 8 12 19 28 19 10 15 18 18 13 10 6 5 6 11 12 11 10 7 7 7 7 7 7 7 7 6 7 8 8 8 8 8 8 7 7 7 7 7 6 6 6 7 7 7 7 7 7 7 7 6 6 5 5 5 4 4 3 2 2 1 2 3 3 3 3 3 2 2 2 2 2 2 2 2
9 12 17 16 13 12 14 11 7 5 2 2 4 7 1 2 1 4 4 2 1 2 10 18 23 27 20 13 15 17 16 16 15 13 12 9 10 11 9 9 8 9 8 7 7 7 6 5 6 7 8 8 7 7 7 7 6 6 7 7 7 6 6 6 6 6 7 7 7 7 7 7 7 6 6 6 5 4 3 3 2 2 1 2 2 3 3 2 2 3 3 4 3 3 2 3 3
11 14 16 16 15 15 14 10 8 6 2 1 2 7 5 2 3 4 6 1 1 6 15 21 22 19 17 16 15 12 10 13 14 13 13 10 10 11 9 9 8 9 8 8 7 7 6 6 6 7 8 8 7 7 7 7 6 6 6 6 6 5 5 5 5 6 7 8 8 8 8 8 8 6 6 6 5 4 3 3 2 2 1 2 2 2 2 1 2 3 3 4 4 3 3 3 4
13 15 15 15 14 13 11 7 7 5 4 1 2 4 6 2 2 5 5 6 10 15 16 16 16 15 18 13 8 9 9 10 11 9 9 10 10 9 8 8 7 8 7 7 7 7 7 7 7 7 8 8 7 7 8 8 7 6 6 6 5 5 5 5 5 6 7 8 9 9 9 8 7 7 6 6 6 4 3 3 3 2 1 1 1 1 1 2 3 4 4 4 4 4 4 4 5
16 16 15 16 13 8 6 5 5 2 3 3 3 1 4 1 6 9 3 16 22 23 18 12 10 12 18 13 5 5 6 6 8 9 8 10 9 7 6 6 6 6 7 7 7 7 8 7 7 7 8 8 8 8 8 7 7 6 6 5 5 5 5 5 5 6 7 8 9 9 9 8 7 7 7 7 7 6 5 4 3 2 2 1 1 2 3 4 5 5 5 5 6 6 6 6 6
16 18 17 18 14 9 8 4 4 3 4 3 4 3 6 5 4 9 4 21 25 26 18 10 10 11 14 12 11 9 6 4 5 9 9 9 8 7 7 6 6 7 7 7 7 7 7 8 7 8 9 9 8 8 9 7 6 6 5 5 5 5 5 5 6 6 6 7 8 9 9 8 7 7 8 8 8 7 5 4 3 3 3 2 3 3 5 6 7 7 7 7 7 8 7 7 7
14 16 16 15 13 9 7 1 6 4 5 4 4 3 7 4 7 3 10 13 16 18 13 8 11 13 10 6 10 11 8 7 6 8 8 7 7 7 7 5 6 6 6 6 7 8 8 8 8 8 9 9 9 9 9 8 7 6 6 7 7 6 6 7 7 7 6 7 8 10 11 10 8 8 8 8 8 8 6 5 5 5 5 5 5 6 6 7 8 9 8 8 9 9 8 7 6
14 15 13 9 7 5 5 4 7 4 6 6 2 2 5 3 5 10 10 7 9 12 11 9 11 12 9 6 8 7 9 9 7 7 6 6 6 7 7 6 5 4 4 6 7 8 8 8 8 8 8 9 9 9 9 9 8 8 8 8 8 8 7 8 7 7 8 8 10 11 12 12 10 8 7 7 8 8 7 6 5 6 6 6 7 7 8 8 9 9 9 9 9 9 8 7 6
14 14 11 7 4 3 5 3 5 4 6 10 7 9 9 2 1 10 9 9 12 13 14 12 13 11 11 13 10 5 7 8 6 6 5 6 6 6 6 5 5 4 5 6 7 8 8 8 8 8 9 9 9 9 9 10 9 9 9 9 9 9 8 8 8 8 8 9 10 11 11 11 11 9 7 6 7 7 7 6 5 6 5 6 7 8 9 9 9 10 10 10 9 9 8 7 7
14 12 9 6 4 4 3 2 5 5 5 8 9 1 6 3 4 12 9 12 13 13 14 13 15 12 11 12 9 5 6 6 5 5 6 6 6 7 6 6 5 5 6 6 7 8 7 8 9 9 9 10 10 11 11 10 10 10 10 10 9 9 8 8 8 8 8 9 10 10 11 11 10 10 8 6 5 6 6 5 4 5 5 6 7 8 9 9 10 10 9 10 9 9 9 8 8
12 11 9 4 5 3 3 2 6 4 5 4 12 1 10 7 9 12 9 12 13 14 12 8 10 13 12 10 7 6 5 5 5 6 7 7 6 6 6 6 6 5 6 7 8 7 7 8 9 9 10 11 12 12 11 11 10 10 10 9 9 9 8 8 8 8 8 9 9 10 11 11 11 10 9 7 6 4 4 4 4 5 5 6 7 7 8 9 9 10 10 10 10 10 10 10 9
10 7 3 2 5 4 3 4 6 5 4 2 8 9 16 12 10 10 10 11 11 14 13 8 6 8 10 8 6 5 4 5 5 7 7 7 6 6 6 6 7 6 7 8 8 7 7 7 8 10 11 13 14 13 12 11 10 10 10 10 9 9 9 8 8 8 8 8 9 10 10 11 11 10 9 8 7 6 4 4 5 5 6 7 8 8 8 8 9 9 9 10 10 10 11 11 10
10 4 3 2 6 5 7 3 3 7 3 3 6 10 15 13 11 9 10 13 13 12 13 10 8 7 8 7 5 4 5 5 6 8 8 7 5 6 5 5 7 7 8 8 7 8 8 8 8 10 11 12 12 11 11 10 10 10 9 9 8 9 9 8 8 8 8 8 8 9 10 10 11 11 10 9 8 7 7 6 6 6 7 8 9 9 9 9 9 10 10 10 10 10 11 12 11
8 6 2 1 4 6 6 4 2 4 2 3 4 7 13 13 11 12 10 12 15 12 11 11 9 10 8 7 5 5 6 7 8 8 8 6 6 7 6 7 9 9 9 8 8 8 8 8 8 9 10 10 10 11 11 10 10 10 9 9 8 8 9 9 9 8 8 8 8 8 9 10 9 10 10 10 9 8 8 8 7 8 8 9 9 10 11 10 10 11 11 11 11 12 12 13 12
7 10 3 2 7 6 3 3 3 1 2 2 2 7 12 12 10 13 13 12 14 13 12 14 10 8 3 4 6 6 6 6 7 7 8 7 8 9 10 10 9 9 9 8 9 9 8 8 7 9 9 9 9 9 10 10 10 10 10 10 10 10 9 9 9 9 9 9 8 8 8 8 7 7 7 7 8 8 9 9 9 9 9 10 10 10 11 11 12 12 12 12 13 14 14 14 14
10 13 4 3 6 6 6 6 4 1 2 2 5 10 10 9 11 14 15 13 14 17 17 18 17 12 7 8 7 7 7 6 6 6 8 8 8 8 9 10 9 9 9 8 9 9 8 8 8 9 8 8 8 7 8 10 11 11 10 11 11 10 10 9 9 10 9 8 7 7 7 7 6 7 7 6 8 9 9 10 10 10 11 11 11 11 11 11 12 12 12 13 13 14 14 15 15
15 11 3 4 4 4 4 3 5 1 4 8 9 9 6 6 10 13 15 16 17 18 19 18 19 17 14 11 8 8 7 6 7 7 8 8 7 8 9 9 9 10 10 8 9 10 9 8 10 10 9 9 9 9 10 10 10 10 10 11 11 10 10 10 11 10 9 8 7 6 6 6 6 7 7 7 8 10 9 9 11 11 12 12 12 12 12 11 11 11 11 11 12 13 14 15 16
15 6 5 3 2 3 4 2 6 3 6 11 9 7 6 5 8 10 11 16 17 17 18 18 19 19 15 12 10 9 7 8 9 10 11 10 9 9 9 8 8 10 11 9 10 11 10 10 12 12 13 13 12 11 12 12 11 11 11 11 11 11 11 11 12 11 9 9 7 6 6 5 6 6 6 7 8 9 9 10 11 12 14 14 13 12 12 11 11 11 10 11 10 10 12 14 15
10 3 4 2 2 7 8 5 6 6 9 11 9 9 10 9 8 10 10 14 16 14 15 16 18 17 14 12 11 9 9 10 11 13 13 11 10 9 8 8 9 11 12 10 11 11 10 13 15 14 14 13 12 11 12 12 10 11 11 10 11 11 11 12 13 12 11 9 8 7 6 6 7 7 8 8 9 10 10 10 10 12 15 16 14 12 12 11 11 12 12 12 11 10 12 12 13
5 4 2 3 3 9 12 10 9 11 12 11 11 12 12 10 8 9 11 14 15 13 13 14 16 16 14 13 12 11 11 12 13 13 12 10 10 10 8 8 10 12 12 11 11 10 10 13 15 13 12 12 12 12 12 10 9 10 8 8 10 10 10 10 11 12 12 10 8 7 6 6 7 8 8 8 9 11 11 11 11 12 15 17 16 15 14 12 12 13 13 14 13 12 13 13 12
5 3 2 2 5 8 12 16 15 12 11 12 12 12 12 11 9 9 10 11 11 13 14 15 16 15 13 12 12 12 12 14 14 13 12 11 9 10 10 10 12 13 12 11 11 11 12 12 14 13 12 12 11 10 11 10 10 10 9 10 10 10 11 11 10 10 12 12 9 8 7 6 8 9 10 11 10 12 13 12 12 12 14 15 16 17 16 15 15 15 14 15 14 14 14 13 13
7 4 6 8 8 8 12 18 19 12 11 13 12 11 12 12 13 14 14 11 9 12 14 15 16 14 12 11 12 13 12 14 13 12 13 12 10 11 12 12 13 13 11 11 12 13 12 12 12 11 11 11 11 12 12 10 10 10 10 12 10 10 11 11 11 10 12 16 14 11 11 10 10 12 13 14 14 14 15 14 14 13 12 13 13 15 16 15 15 15 16 16 15 15 14 14 14
5 7 9 12 11 11 12 15 17 13 13 13 11 12 13 13 14 17 19 15 12 13 14 15 15 13 12 11 12 13 14 13 12 12 14 13 11 12 12 13 13 13 12 13 13 12 11 12 11 10 10 10 11 14 12 11 12 11 10 10 10 11 10 9 11 11 12 17 18 13 13 12 10 12 13 13 13 14 15 14 15 14 13 13 13 16 17 15 15 15 15 16 17 16 15 15 15
8 8 10 13 13 14 14 15 16 16 17 14 12 12 13 13 12 15 18 15 13 13 13 15 14 12 13 13 12 13 14 13 12 12 14 13 12 12 11 13 13 12 13 13 13 12 12 12 11 10 10 11 13 13 11 10 11 12 12 11 12 11 10 13 13 13 12 14 16 11 11 12 10 12 13 10 10 13 14 14 16 15 14 14 14 16 17 15 16 16 15 16 17 17 16 16 16
9 8 11 12 14 15 14 16 17 15 16 14 13 14 14 15 14 15 16 14 13 12 13 15 14 12 13 14 14 14 14 13 10 11 14 14 13 13 13 14 13 12 12 11 11 11 11 12 12 11 11 13 13 11 10 10 11 12 12 12 12 11 12 14 13 12 11 10 11 10 11 12 12 13 13 12 11 13 14 15 16 14 15 15 14 16 16 16 16 16 15 14 15 16 16 17 18
8 10 13 12 14 13 13 16 16 13 13 12 12 13 14 12 12 14 14 13 13 12 13 14 13 12 12 14 14 15 14 11 9 10 14 15 14 15 16 14 11 10 10 10 10 10 11 11 11 12 11 12 12 11 11 11 12 12 12 11 12 12 13 13 11 10 9 9 11 12 13 13 14 14 15 14 13 14 15 15 15 15 16 15 16 16 15 16 16 15 15 14 15 15 15 16 18
10 12 13 13 13 12 14 15 15 13 12 11 11 12 13 10 8 9 11 12 12 13 14 14 12 11 11 12 12 13 12 11 10 11 14 14 14 15 15 13 10 10 11 11 10 9 9 10 11 12 12 13 12 11 11 11 11 12 12 11 11 12 12 12 11 11 11 12 15 16 15 14 15 14 16 16 14 13 14 15 15 16 16 16 17 16 15 17 16 14 15 15 14 14 14 14 14
12 11 11 13 13 12 14 13 12 11 9 12 14 13 14 12 10 9 11 12 13 14 13 12 11 10 10 10 11 12 12 13 12 12 14 13 12 13 13 12 11 12 11 10 9 9 10 11 12 12 12 13 13 11 11 12 11 11 11 11 12 12 12 12 12 13 14 15 16 18 18 16 15 15 16 17 16 14 12 14 16 17 15 16 18 15 16 17 14 14 15 15 14 15 15 13 13
11 9 9 11 10 9 11 7 7 9 8 9 10 11 11 10 10 12 12 12 15 16 12 11 11 9 9 10 11 12 11 13 13 13 14 12 12 12 12 12 11 10 10 10 11 12 12 12 12 13 13 13 13 13 12 12 12 12 11 11 12 12 11 11 13 13 13 15 14 16 19 18 16 17 17 18 19 17 14 13 16 17 15 18 17 15 17 16 12 14 15 14 14 14 14 13 13
9 7 6 6 4 5 8 4 3 6 6 4 4 6 6 7 11 13 12 12 14 15 11 10 10 8 8 10 11 12 11 13 13 13 13 13 12 12 12 12 10 9 9 11 12 13 13 13 13 14 14 14 14 14 13 12 12 12 10 10 12 12 11 11 13 13 12 13 12 11 15 17 16 16 16 17 18 18 16 14 16 17 17 21 18 14 18 16 13 15 15 14 14 13 12 12 14
7 4 3 2 3 5 8 3 3 4 7 6 8 6 3 6 13 15 12 13 14 13 11 10 10 9 8 8 10 11 11 12 12 12 12 12 12 11 11 10 10 10 10 11 12 12 13 13 13 13 13 13 14 14 13 12 12 12 11 11 12 12 11 10 11 12 10 11 12 11 12 15 17 16 16 18 18 18 17 14 14 15 17 22 20 18 19 16 14 16 17 17 15 13 12 12 14
2 2 1 1 3 6 8 5 2 4 7 6 7 6 4 5 12 17 14 15 16 13 10 9 9 9 8 7 9 11 11 11 11 12 11 11 11 10 10 10 11 11 11 12 12 12 12 11 11 13 13 13 14 13 12 12 12 13 13 13 13 11 11 10 10 11 11 11 13 13 14 16 18 18 17 19 20 19 18 16 15 15 16 18 19 21 21 17 15 16 19 21 17 13 13 13 13
2 2 0 1 4 5 4 3 6 7 5 6 7 6 6 7 12 16 16 17 17 14 10 9 9 8 8 7 8 9 9 9 10 11 11 10 11 10 11 12 11 12 14 13 12 11 11 11 13 14 15 15 15 14 13 13 13 12 12 12 13 12 12 12 12 13 14 14 16 17 17 18 20 20 20 20 21 20 20 20 18 17 17 18 19 20 20 19 17 17 20 23 20 15 14 15 13
3 3 1 2 6 5 3 4 8 9 8 11 11 8 9 10 12 15 16 17 16 14 10 10 9 8 8 8 8 9 7 8 10 10 11 10 11 11 12 12 12 13 13 12 12 12 14 15 15 15 14 15 16 15 14 14 13 11 12 12 12 12 12 12 13 14 15 16 18 18 18 20 20 20 20 20 21 21 22 22 21 20 20 20 21 20 19 19 18 17 18 21 20 17 16 15 14
4 6 4 3 6 5 6 5 4 8 11 12 10 10 12 11 12 13 15 16 16 14 11 10 10 9 9 8 8 8 8 9 10 10 11 10 10 12 11 11 12 12 12 13 14 14 15 15 14 14 14 15 16 16 14 14 13 12 12 12 11 12 12 13 15 15 15 16 17 18 18 19 18 19 20 19 19 20 21 21 22 22 22 22 22 21 20 21 20 19 19 19 19 19 17 15 15
7 7 8 6 7 6 9 8 6 10 11 11 10 9 11 11 10 12 13 15 16 15 12 11 11 10 9 9 8 8 10 11 11 10 10 10 10 12 10 10 12 14 14 15 15 15 16 15 14 15 15 15 16 16 15 15 15 14 15 16 15 15 15 15 16 16 17 18 19 20 20 21 20 20 22 21 20 20 20 21 22 21 21 22 23 23 24 24 23 22 21 21 21 21 18 15 16
4 6 9 8 8 8 9 8 7 12 9 7 12 10 10 11 10 11 11 12 14 15 14 12 11 10 9 9 9 10 12 12 10 10 10 10 11 11 10 10 12 14 15 14 14 15 16 16 16 16 16 16 17 17 17 18 19 18 19 21 20 19 19 19 19 20 21 21 22 22 22 24 23 23 24 23 22 22 22 21 21 21 20 20 22 24 25 25 25 24 24 24 24 23 20 16 14
6 6 7 8 8 8 10 8 8 11 8 6 11 12 10 9 9 11 11 10 12 14 14 13 12 11 10 10 11 12 13 12 12 12 11 11 11 11 11 12 13 14 14 14 14 16 16 17 17 16 18 19 20 20 21 22 22 21 22 22 22 21 21 21 21 20 20 20 21 21 21 21 22 21 22 22 22 24 25 23 21 21 21 21 21 21 22 23 24 25 25 26 25 24 23 19 15
7 6 6 6 7 8 9 11 9 5 5 7 9 11 10 9 9 11 11 11 12 14 14 14 13 13 12 11 12 14 14 14 13 13 13 12 13 14 14 15 15 15 15 15 17 18 18 17 18 19 21 22 22 22 22 21 20 20 20 20 20 19 19 19 18 18 19 18 20 22 20 19 20 20 20 19 19 22 24 25 24 23 23 23 23 22 21 21 21 22 23 25 26 25 24 22 17
5 6 6 5 7 6 5 10 7 2 4 9 11 10 8 8 9 9 12 13 13 14 15 15 14 15 14 13 14 14 14 14 13 12 12 14 15 16 15 16 17 17 18 19 19 19 20 20 21 22 21 21 22 21 21 21 20 18 17 17 17 17 17 17 18 20 21 20 21 24 23 21 21 21 22 21 20 20 21 23 25 25 25 25 27 27 25 25 24 24 23 23 25 25 25 25 20
4 6 6 5 7 6 7 11 8 6 7 10 9 8 6 6 8 7 9 12 12 13 14 14 15 16 16 16 16 16 15 16 16 14 13 14 16 17 16 17 17 18 21 21 20 20 20 20 20 20 20 21 22 22 21 21 22 21 20 19 19 19 18 19 21 22 22 22 21 24 24 22 21 22 24 24 21 21 21 22 24 24 24 25 27 29 28 28 28 28 26 24 26 26 25 26 24
4 7 6 8 10 8 11 14 8 3 5 5 2 3 5 6 7 7 7 9 10 11 13 14 14 15 16 16 16 16 16 16 17 16 16 16 17 17 17 18 19 20 20 19 19 18 18 18 18 19 20 21 21 21 21 21 22 22 22 21 21 21 20 20 21 21 22 22 20 22 23 21 20 21 24 25 23 22 22 24 24 23 24 25 26 28 29 29 29 30 29 26 29 31 27 26 28
2 8 12 10 10 10 11 11 6 2 2 3 1 1 4 5 6 7 7 9 9 10 12 13 13 15 15 15 16 16 17 17 17 18 17 18 19 18 18 19 20 18 17 17 17 17 17 17 18 19 20 20 19 20 20 20 20 20 21 20 19 19 19 19 19 19 20 20 19 21 22 20 20 21 22 23 22 21 23 25 24 25 26 26 27 28 29 30 31 31 30 27 28 30 29 29 30
2 11 17 13 11 11 9 8 4 2 1 4 5 3 4 5 5 7 8 10 10 9 10 12 13 15 15 16 16 17 17 18 18 18 18 18 18 18 18 18 17 16 16 16 16 16 16 16 17 17 18 18 18 18 19 20 19 19 19 19 18 18 19 18 18 18 20 20 19 20 22 21 21 21 22 22 21 21 23 24 24 25 27 27 29 29 30 31 31 31 30 30 29 27 28 29 32
4 10 13 12 11 10 7 5 4 1 1 2 5 5 5 4 5 6 7 8 10 9 9 11 13 15 16 17 17 18 19 18 18 18 18 18 18 18 17 17 16 15 15 15 15 14 14 15 16 16 16 17 17 17 18 19 19 19 18 18 18 18 18 18 18 19 20 21 20 21 22 22 22 22 22 22 21 21 24 24 23 25 26 28 29 29 30 30 31 32 32 33 32 29 28 27 30
3 7 7 8 9 7 5 2 3 2 1 2 6 6 3 4 4 4 5 6 8 8 8 10 13 14 16 17 17 18 18 18 18 18 18 17 18 17 17 16 15 15 14 14 14 14 13 14 14 15 15 16 16 17 18 18 19 19 19 19 18 18 19 19 19 20 21 21 21 22 23 23 23 22 22 23 23 23 25 25 24 25 26 28 29 29 30 30 31 32 34 34 34 32 30 28 28
2 6 10 12 10 7 5 3 3 1 2 2 7 7 3 4 4 3 4 5 7 8 7 10 14 14 15 16 17 17 17 17 17 17 17 17 17 17 16 16 15 15 14 14 14 14 13 14 14 15 16 15 16 17 18 19 19 20 20 19 19 18 19 20 20 21 22 22 22 24 24 23 23 22 22 23 24 24 26 26 25 26 27 28 29 30 30 31 31 32 32 32 32 32 30 29 28
6 9 8 7 5 4 3 2 2 1 2 3 7 6 3 3 3 4 6 7 8 9 8 10 13 14 15 15 15 16 16 16 16 15 16 16 16 16 16 16 15 15 14 14 14 14 13 14 14 15 16 17 17 18 18 18 18 19 21 20 20 19 19 20 20 21 22 22 23 24 24 24 24 23 23 23 24 25 26 27 26 26 27 28 28 30 32 32 33 33 33 33 32 31 30 29 28
8 8 5 4 0 1 1 2 1 1 3 4 9 8 5 4 5 7 8 8 9 10 11 12 13 14 16 15 14 15 15 15 15 15 15 15 15 15 14 15 14 14 14 14 14 13 13 13 13 15 16 17 17 17 17 18 18 19 21 21 20 20 20 20 20 20 21 22 23 23 23 24 24 23 24 24 25 26 27 27 26 26 28 28 28 31 32 33 35 34 34 34 33 31 29 28 27
6 6 4 2 2 1 1 2 2 3 4 4 11 9 5 6 5 6 9 9 10 12 13 14 14 15 15 15 14 14 15 15 14 15 15 14 14 14 14 14 14 14 14 13 13 12 12 13 13 14 14 16 17 17 17 19 19 19 20 20 20 20 20 20 20 20 21 21 22 22 22 24 24 24 24 24 25 26 27 28 27 26 29 29 29 31 33 35 37 36 36 34 32 31 29 27 26
3 5 5 3 2 1 0 1 2 4 1 1 6 6 5 5 5 7 10 12 13 13 14 14 13 15 15 14 14 14 14 14 14 15 15 14 14 13 13 13 12 13 12 12 12 12 12 13 14 14 14 16 18 18 18 19 19 19 20 20 20 20 19 20 20 20 20 20 22 22 22 23 24 24 25 24 25 27 28 28 27 27 30 30 29 31 34 36 37 38 39 35 32 31 30 27 25
1 1 4 3 2 3 1 2 3 5 2 1 3 4 5 6 7 9 11 12 13 14 14 15 14 14 14 14 14 14 14 13 14 14 14 14 13 13 13 12 11 11 11 11 11 12 12 13 14 15 15 16 19 19 18 18 19 19 20 20 20 20 20 21 21 21 21 21 22 23 23 24 24 25 25 25 26 26 27 27 27 27 30 29 28 31 34 35 37 38 40 38 35 32 31 30 26
0 2 2 5 6 4 1 1 2 5 3 2 4 6 5 6 7 8 10 10 11 13 14 15 14 14 13 13 14 13 13 13 13 14 14 13 12 12 12 12 11 10 10 11 11 12 12 13 16 16 15 16 18 18 18 18 19 19 20 21 21 22 22 22 23 23 23 22 23 23 23 24 24 25 25 25 26 26 26 27 26 27 29 28 27 31 34 34 36 37 39 40 37 31 30 31 28
3 2 4 6 7 5 2 1 0 3 2 2 5 8 7 5 4 7 10 10 10 11 13 14 14 13 12 12 14 14 14 13 13 14 13 13 12 11 11 11 11 11 11 11 12 13 13 13 16 17 16 16 17 18 18 17 18 20 21 22 23 23 23 23 23 23 23 23 23 24 24 25 25 25 25 25 26 26 26 27 26 27 28 27 27 31 33 34 35 37 38 39 38 33 29 29 29
7 3 4 4 3 2 1 1 2 1 2 1 3 7 6 3 4 9 11 11 11 11 12 13 12 13 13 13 13 14 14 13 13 13 13 12 12 11 11 11 10 10 11 11 11 13 13 13 16 18 16 16 17 18 18 17 18 21 23 24 24 24 24 24 23 23 23 23 24 24 24 25 25 25 25 26 26 26 26 27 27 27 27 27 29 32 34 35 36 37 38 39 38 35 30 30 29
8 5 4 4 2 1 1 3 2 2 1 1 0 3 4 4 6 11 13 11 12 12 11 11 12 13 13 13 13 13 12 11 12 13 12 11 11 11 11 11 11 10 10 10 11 13 14 12 15 17 16 15 16 17 18 18 19 20 23 25 24 24 24 24 24 23 23 24 24 24 25 25 25 25 26 26 26 26 26 27 27 26 27 30 32 34 36 38 38 37 37 39 39 34 31 33 31
3 4 3 1 1 2 1 2 1 2 2 1 2 2 3 4 5 9 12 12 12 13 12 12 13 14 13 13 13 12 12 12 13 12 11 10 9 9 9 9 10 10 10 10 10 12 14 12 14 16 16 15 15 16 17 19 20 21 23 25 24 24 24 24 25 23 23 24 24 24 25 25 25 25 25 26 26 25 26 27 26 26 29 32 34 35 38 40 39 38 37 38 38 34 33 35 31
4 4 2 1 1 2 1 1 3 2 2 1 2 4 2 1 3 6 11 12 13 16 15 14 15 14 13 14 13 13 13 13 13 12 11 10 9 8 9 8 9 10 10 10 10 11 13 13 13 14 16 15 15 16 17 19 21 22 23 24 24 24 24 23 25 24 23 25 25 24 25 25 25 25 25 25 26 26 26 26 25 27 31 33 35 37 39 40 39 38 37 36 36 34 33 37 31
Wind_Direction
275 281 289 296 291 287 273 264 263 245 244 254 114 92 0 55 307 272 322 357 29 24 40 51 51 60 68 78 90 77 52 45 44 49 101 74 58 56 64 72 63 56 47 51 48 43 39 32 33 32 38 35 37 35 30 30 27 32 31 32 25 21 22 20 15 13 20 23 23 17 12 8 2 358 346 335 334 342 0 13 6 4 334 324 340 344 339 342 349 348 346 336 325 309 308 283 250
280 282 290 288 267 267 271 262 258 260 257 282 82 88 131 100 41 294 324 350 345 34 60 53 56 70 80 81 80 77 54 50 70 90 103 94 72 64 70 75 62 57 46 46 47 44 41 32 35 33 39 37 38 38 36 36 31 33 32 35 27 21 21 20 18 17 23 21 20 13 10 10 11 12 4 356 352 354 7 17 10 4 11 358 351 357 7 357 347 343 336 321 312 307 297 264 239
283 280 289 284 254 249 264 268 261 267 270 264 72 93 93 68 115 246 273 170 103 45 67 59 52 57 67 65 56 68 66 50 66 90 89 82 81 71 70 71 57 57 48 45 48 41 41 38 38 39 43 43 43 43 45 44 41 41 38 38 32 29 26 23 23 21 21 14 11 6 7 9 10 15 13 9 3 358 358 359 354 346 333 350 351 7 36 8 355 347 336 320 311 303 283 265 250
282 274 281 288 270 251 251 259 261 275 290 54 70 59 63 345 352 288 289 43 30 42 62 68 56 52 61 62 59 66 61 47 55 81 83 74 84 76 69 76 62 61 58 46 46 42 39 36 38 43 47 49 51 51 51 48 44 46 43 44 41 39 37 35 33 26 19 8 5 2 0 2 5 10 11 9 4 357 351 346 346 350 346 13 28 23 19 2 359 348 334 319 310 301 286 277 268
277 272 270 276 276 277 274 270 272 298 335 53 97 117 111 58 340 295 313 50 36 45 58 77 80 70 65 51 52 52 37 46 53 70 84 75 78 81 76 83 73 63 62 48 47 45 39 39 41 44 48 51 53 55 55 52 47 47 46 45 43 41 45 45 44 34 19 7 5 5 1 -0 4 7 7 6 1 352 343 341 347 0 15 29 14 356 348 349 347 334 324 315 309 300 292 283 277
275 273 265 259 260 288 288 284 327 32 39 50 108 162 142 139 208 250 0 56 52 55 54 73 103 96 77 54 59 59 47 57 54 66 76 79 79 86 82 75 73 66 61 56 55 49 44 43 42 44 48 50 52 56 57 61 58 52 48 42 46 47 53 50 44 35 21 15 10 11 12 8 8 11 11 5 1 356 348 344 343 347 357 353 347 351 343 341 338 329 320 312 311 307 305 296 280
273 275 268 253 242 252 262 21 14 24 42 45 109 144 129 181 215 126 39 60 65 63 53 63 104 98 91 82 67 56 64 78 71 72 71 84 92 90 85 74 67 66 66 62 60 53 49 43 38 44 48 51 52 55 58 65 64 57 52 49 55 54 54 48 38 32 24 22 17 18 20 19 17 15 17 10 5 3 2 354 342 344 348 344 339 340 338 337 333 326 320 315 316 314 316 316 300
269 271 274 272 250 241 271 53 41 23 15 11 28 333 98 208 247 88 80 91 75 71 64 63 90 85 78 90 84 57 66 80 76 78 78 82 89 93 90 87 77 66 71 63 61 56 51 46 42 48 52 56 53 57 59 60 60 56 56 55 58 54 51 47 40 36 27 24 22 25 24 24 24 20 20 12 9 10 12 8 355 348 344 337 330 331 333 332 329 325 321 319 321 318 313 317 320
259 256 261 266 284 19 337 26 61 48 12 347 348 349 28 30 9 74 69 64 65 69 59 55 77 89 92 90 95 79 68 76 81 83 82 82 76 85 86 87 86 66 71 69 64 56 51 49 47 54 57 59 55 59 59 58 59 56 56 55 56 54 52 50 47 41 30 26 23 27 29 28 28 27 25 13 12 14 16 14 3 351 340 329 323 326 329 327 326 324 322 321 324 322 315 312 318
255 246 251 266 307 40 335 355 51 46 52 320 289 331 48 339 35 61 56 60 64 73 70 65 78 99 107 96 96 78 72 75 81 84 76 82 71 74 78 76 82 75 80 75 64 56 51 52 52 58 59 57 54 53 53 55 56 55 55 54 56 54 53 53 51 46 37 32 27 29 32 32 31 29 28 21 14 12 12 4 350 338 329 320 317 321 324 325 323 320 320 321 323 323 320 319 319
264 241 235 279 323 311 285 55 75 59 89 270 270 25 60 5 26 55 55 67 66 70 77 66 79 99 95 84 81 62 68 75 69 79 72 70 67 69 68 65 75 82 90 80 69 63 53 53 54 57 61 59 54 51 50 51 52 54 55 56 57 54 54 54 54 52 46 42 36 33 32 32 31 29 27 23 16 9 2 344 330 320 311 307 308 311 315 316 315 314 316 315 317 318 317 320 320
273 268 253 338 317 314 3 62 109 109 85 282 291 19 51 36 37 57 47 58 65 62 55 53 102 109 92 78 74 66 59 68 60 63 66 61 59 58 57 69 76 78 90 85 75 73 64 56 58 63 67 64 59 56 54 53 53 54 54 54 55 54 53 52 53 53 51 49 44 38 31 29 29 28 26 27 27 16 2 337 320 309 302 302 301 303 304 303 304 305 306 307 309 309 310 312 314
256 296 53 341 312 10 66 94 135 115 95 293 306 16 50 49 38 47 47 50 51 58 46 48 106 99 90 97 78 70 47 47 51 54 64 59 55 54 52 75 83 79 82 82 70 68 68 62 70 75 71 70 72 69 62 56 54 52 50 48 50 52 52 53 53 51 50 49 46 39 31 29 29 26 23 27 30 21 12 358 338 323 309 305 303 302 301 297 297 297 297 298 299 298 299 301 304
268 301 98 180 354 47 98 142 147 115 124 269 294 19 48 49 38 39 47 53 40 50 50 42 101 102 90 111 77 56 43 39 48 57 68 64 71 75 65 73 82 79 73 75 66 59 65 66 72 70 65 73 78 78 72 61 57 55 49 44 45 47 48 50 49 47 45 41 38 34 27 28 28 24 20 19 21 19 12 7 358 347 334 325 319 313 310 305 300 298 297 295 296 296 295 296 299
328 341 6 52 22 35 12 33 50 63 130 217 285 38 53 49 49 51 50 61 43 43 56 42 75 106 67 95 83 56 49 55 68 72 74 66 67 70 65 70 76 73 70 71 65 57 60 64 61 52 58 70 66 70 75 65 58 56 54 50 45 43 42 41 38 34 33 31 31 30 22 22 24 24 21 14 14 16 9 8 4 353 348 339 332 327 321 318 314 311 311 310 310 307 304 304 302
22 23 34 55 32 28 340 357 38 35 100 108 50 57 68 56 55 63 58 70 64 51 58 51 65 96 91 83 84 69 67 76 87 78 75 73 68 70 68 72 73 70 72 69 64 60 56 55 51 47 57 70 61 61 68 65 61 57 58 52 43 39 35 33 31 29 30 26 25 24 20 19 18 19 15 6 7 7 3 3 358 352 348 340 335 330 324 321 320 321 321 321 322 320 318 315 311
34 27 13 44 45 42 301 349 63 112 79 69 63 75 98 72 60 71 70 74 75 62 63 65 70 85 89 83 77 73 72 63 70 73 79 78 72 73 70 71 73 75 78 65 58 61 56 51 51 54 64 74 73 68 66 65 61 56 53 45 36 34 28 27 25 21 21 18 19 16 18 15 5 12 3 352 -0 355 352 356 353 349 346 339 331 326 323 323 321 320 321 320 320 321 320 315 315
38 12 13 41 115 136 213 56 85 131 84 81 88 100 98 73 72 77 74 71 76 73 69 73 74 76 80 81 74 68 62 54 67 76 78 78 76 72 68 73 80 87 86 65 55 58 53 60 68 72 73 73 73 69 63 55 48 43 38 31 29 27 20 23 21 15 12 10 16 10 7 7 353 359 344 338 352 343 338 347 350 348 343 337 328 320 321 323 321 319 320 320 315 312 315 314 315
59 70 33 272 152 115 132 92 99 106 87 98 97 89 76 61 69 75 74 64 65 69 65 66 71 72 74 76 72 66 60 58 63 70 72 76 81 81 82 90 93 91 85 69 60 59 60 72 78 79 75 69 61 54 51 43 35 36 28 18 22 21 11 11 8 7 13 14 16 14 9 4 346 342 341 339 338 333 333 333 340 349 340 332 327 319 317 316 314 314 316 317 309 305 312 313 313
90 129 137 231 69 93 110 97 83 75 84 96 82 79 77 69 71 82 87 70 59 58 53 57 64 65 69 74 75 71 65 64 65 71 76 78 81 89 95 96 96 91 83 75 65 64 74 80 78 71 66 64 53 42 42 38 32 35 24 17 20 14 12 12 2 353 3 14 18 21 10 355 344 337 339 335 323 326 329 323 332 347 339 334 331 325 321 314 311 316 316 312 307 305 307 306 307
139 140 106 106 72 77 93 100 95 83 94 90 81 85 79 72 64 69 82 74 60 55 50 53 61 64 68 72 73 71 66 65 66 69 74 80 85 88 88 87 91 93 85 76 71 75 77 73 71 64 55 57 55 45 44 35 30 29 19 26 23 12 15 14 8 349 354 10 16 19 9 2 355 344 343 342 339 339 338 334 335 340 337 334 330 323 321 316 315 323 322 318 314 310 307 304 304
146 84 56 75 80 76 73 95 109 116 109 90 85 84 78 74 61 59 66 69 61 57 58 59 63 70 74 73 71 70 66 65 67 67 68 75 84 84 84 85 87 89 82 77 82 84 78 67 66 64 53 48 47 46 45 30 28 29 17 22 20 20 19 5 5 359 355 3 10 17 12 16 4 352 351 348 348 345 342 342 338 339 335 328 322 317 319 320 319 322 320 322 322 318 314 308 305
105 73 65 69 70 80 75 84 98 101 91 84 89 88 86 83 71 65 67 70 65 61 65 66 66 68 69 72 72 70 65 64 65 65 66 70 82 87 88 88 87 86 85 89 90 83 75 70 63 61 54 46 44 41 38 24 23 30 24 18 15 20 21 11 11 11 5 355 1 12 6 10 12 356 344 340 348 341 336 340 337 341 339 331 326 321 327 329 324 323 320 320 321 321 320 313 312
72 79 73 71 70 75 78 81 82 84 85 86 92 89 81 79 78 74 71 73 69 67 70 72 75 71 69 71 72 73 70 67 63 63 69 74 79 88 93 92 90 86 87 88 83 76 72 70 61 55 53 54 51 37 33 28 21 26 25 16 15 16 17 23 17 13 16 354 354 11 10 11 23 4 339 346 0 341 339 343 339 340 338 336 329 327 334 330 324 328 324 318 317 316 318 313 312
71 86 81 80 79 75 80 82 77 77 82 85 85 81 75 77 81 75 73 75 70 72 76 75 77 75 74 74 72 74 75 75 70 63 70 78 78 83 91 90 86 84 82 75 65 61 60 59 55 53 53 57 54 37 32 33 26 26 24 12 12 20 25 23 12 10 18 357 355 23 28 19 23 8 354 13 9 352 0 346 338 340 335 337 333 331 334 327 326 326 322 322 317 314 315 312 312
78 87 86 80 78 78 82 81 78 75 77 83 84 82 82 85 83 72 72 81 79 78 79 79 79 74 70 71 70 68 71 75 74 70 74 77 76 78 85 84 80 77 72 66 55 45 44 46 50 49 47 53 53 40 29 29 28 25 24 14 5 21 32 21 8 12 13 359 7 26 29 18 16 9 5 15 4 5 9 342 340 343 337 343 335 330 330 326 327 325 327 329 318 314 312 310 312
85 84 85 80 79 83 82 81 84 82 77 78 76 77 78 76 76 74 80 86 86 81 77 78 79 77 73 71 71 66 69 72 70 78 80 76 71 72 79 79 71 65 60 58 51 44 48 46 48 45 41 46 46 37 26 24 30 22 17 12 2 16 28 15 6 9 7 4 7 12 16 11 5 2 4 5 359 10 0 341 349 345 344 345 330 335 339 329 327 329 332 325 316 314 310 308 305
94 94 94 83 77 79 78 80 87 86 81 78 76 77 74 66 69 89 101 92 88 88 79 77 77 76 77 72 70 68 72 75 71 75 79 80 78 72 74 72 62 57 53 51 48 48 54 49 44 39 36 38 34 35 28 16 24 24 13 7 3 12 17 7 1 2 2 3 0 356 359 3 357 355 359 353 352 3 352 344 347 346 350 333 329 350 340 326 333 337 329 320 319 316 311 311 300
101 106 94 75 64 78 85 87 102 100 89 79 72 70 64 62 77 95 106 99 90 89 78 73 74 69 73 74 72 71 72 77 75 73 76 78 79 74 70 65 59 59 51 48 51 48 48 47 42 35 33 32 24 27 24 10 14 19 12 4 359 4 12 6 355 357 1 359 356 349 344 348 353 352 351 344 344 350 352 351 339 341 341 318 334 353 327 331 351 339 327 321 320 315 314 314 302
69 87 94 83 64 91 91 80 113 99 80 50 43 62 51 59 93 104 109 111 99 90 87 84 80 74 74 75 78 78 75 78 78 75 75 73 72 70 66 62 63 67 53 45 49 45 43 44 40 30 27 29 24 20 14 8 10 10 8 1 355 357 7 5 351 354 2 349 344 343 332 334 344 347 343 337 337 339 343 346 334 335 327 315 333 335 319 342 353 332 327 323 318 311 312 311 304
45 77 140 128 94 102 100 126 220 89 91 82 70 83 50 56 105 120 118 112 106 98 101 98 90 92 86 78 84 86 84 83 82 80 77 75 72 68 65 63 59 58 47 44 46 40 36 37 33 24 21 24 22 16 10 9 6 3 4 359 354 353 356 356 345 345 346 333 329 327 320 328 337 337 334 328 327 328 328 329 327 327 320 317 326 320 320 339 337 325 325 326 327 318 313 310 309
30 93 216 306 97 99 106 150 198 86 110 100 76 92 97 76 104 119 115 102 104 104 104 105 100 97 87 76 85 90 91 90 86 82 79 77 73 68 63 59 55 51 43 41 42 38 32 30 27 23 22 20 16 12 8 5 4 6 7 358 351 350 347 340 335 339 335 329 331 326 320 326 331 328 326 323 321 320 317 317 314 311 310 313 316 316 322 330 330 323 317 322 330 328 319 311 312
203 133 192 198 129 100 89 75 62 82 109 85 79 95 100 90 87 100 106 101 106 108 111 116 105 96 89 79 91 101 98 93 89 82 78 75 70 64 56 50 48 44 42 41 38 35 29 23 21 20 21 18 14 13 7 3 6 8 3 352 346 347 349 343 342 348 343 337 336 330 322 322 326 325 322 320 319 317 314 313 310 307 306 307 309 311 318 322 323 320 313 319 325 326 318 309 309
168 126 73 116 108 106 108 58 59 86 95 85 92 93 82 83 82 88 97 102 109 112 115 117 106 101 99 85 95 111 104 88 84 77 77 74 65 60 50 43 38 35 40 40 32 29 25 22 20 17 19 18 14 12 9 6 5 2 357 352 347 346 352 350 345 346 344 341 339 335 330 329 331 331 327 321 319 318 316 313 311 309 307 307 306 306 311 312 311 311 310 314 318 318 314 309 304
207 135 129 120 110 112 104 98 93 95 95 92 88 87 85 81 75 72 79 89 101 107 105 105 103 100 99 93 93 100 96 83 69 61 67 65 58 58 49 37 31 28 32 32 28 29 29 25 20 16 15 15 15 13 13 12 8 5 3 359 356 357 -0 356 352 353 354 353 352 350 349 348 347 349 346 337 331 327 322 319 316 313 310 307 307 307 308 306 304 304 304 304 307 309 311 310 304
241 124 123 125 114 100 93 117 127 86 83 95 90 85 88 81 70 64 67 80 92 101 101 96 96 93 91 95 88 75 77 76 68 63 62 58 59 60 47 32 29 29 31 29 24 25 30 28 23 23 22 21 24 21 19 21 18 15 14 15 16 17 17 12 10 12 11 9 9 6 3 3 2 2 1 354 349 347 341 336 331 326 318 309 306 305 305 306 305 304 303 301 301 303 305 305 305
230 88 105 107 106 105 113 136 120 88 75 90 98 92 85 83 84 79 72 77 87 96 100 97 97 97 96 98 92 79 77 76 73 73 69 67 70 67 54 40 34 34 34 31 26 26 34 36 33 32 33 35 36 32 30 31 29 26 26 26 26 25 23 22 21 18 15 14 13 11 8 6 6 4 3 360 355 353 351 348 345 341 335 323 315 309 306 305 304 303 302 300 299 298 295 291 296
153 110 103 102 105 104 113 113 97 104 109 101 97 95 93 87 90 98 94 89 90 93 98 101 103 102 100 96 88 82 85 86 81 77 75 74 68 61 58 51 44 41 39 38 38 40 44 44 42 41 41 44 45 41 38 36 33 31 28 26 24 23 22 22 21 16 16 11 6 10 10 6 5 1 0 -0 353 349 348 348 347 343 342 338 332 325 317 310 305 303 300 297 295 294 291 285 283
139 112 100 96 98 93 104 99 80 89 110 115 109 98 99 98 96 104 101 95 92 93 97 104 106 103 101 96 87 87 89 88 82 77 76 71 61 58 60 58 54 52 49 50 51 53 54 52 52 51 47 46 45 42 39 36 34 33 29 25 23 21 20 20 17 12 13 7 358 4 11 7 2 357 358 0 353 348 346 346 347 344 343 342 337 334 329 324 320 314 304 297 293 290 289 283 274
81 91 97 102 117 116 113 104 106 175 122 115 113 98 96 104 103 97 93 95 93 92 94 97 98 98 101 100 96 96 93 88 89 87 80 70 64 66 67 63 62 60 58 57 55 57 58 55 54 53 48 44 42 39 35 31 31 33 31 27 25 20 15 13 10 6 7 5 356 360 7 6 360 353 354 359 353 350 349 345 345 346 346 344 340 337 333 331 331 326 316 306 297 288 285 285 276
104 109 109 135 154 147 119 116 144 179 132 119 112 96 91 98 102 97 97 102 97 94 95 93 94 96 97 97 95 96 91 86 90 91 83 74 70 71 69 67 65 62 61 60 58 58 58 57 55 51 46 41 37 34 32 27 24 25 27 24 22 17 11 6 4 2 3 3 357 356 359 0 357 350 350 356 355 352 352 347 346 348 345 343 341 338 335 333 332 329 325 320 311 300 287 283 278
111 120 146 161 152 138 119 121 137 147 133 162 177 89 95 97 101 106 109 107 99 98 99 96 97 97 97 97 96 99 95 88 89 91 86 79 75 74 71 70 68 64 64 63 61 60 58 55 50 44 41 39 36 30 28 27 23 22 23 20 16 12 7 4 2 359 358 360 356 351 353 356 355 349 348 352 355 356 353 349 350 349 344 343 342 338 337 336 334 331 331 329 322 316 307 292 281
89 146 168 163 130 122 121 118 121 151 169 176 256 22 106 108 106 114 117 109 100 98 97 97 99 96 96 100 100 101 100 95 92 92 89 82 78 77 73 70 70 69 68 66 64 61 55 50 44 41 41 40 37 28 24 27 25 20 18 15 11 9 5 1 359 356 354 356 355 349 351 355 353 351 350 350 354 358 354 352 352 349 345 345 343 341 341 339 336 334 332 330 324 319 318 309 295
98 141 160 157 125 122 131 128 133 212 200 124 129 130 116 113 112 117 117 108 106 104 99 98 101 102 101 100 101 102 102 98 94 91 89 85 81 79 77 74 72 72 69 65 63 59 55 50 43 41 40 36 32 28 26 26 23 17 13 10 8 6 4 359 356 355 352 354 356 350 350 355 352 353 354 353 357 358 354 353 351 348 347 346 345 344 343 341 339 336 330 329 329 323 318 313 305
115 133 153 148 126 120 125 136 128 104 333 122 126 117 99 105 118 121 117 113 114 113 111 108 107 110 110 106 103 102 100 98 96 93 91 87 84 81 80 78 75 72 69 65 62 57 54 51 45 41 37 32 28 28 26 22 18 16 11 10 9 4 3 360 357 356 353 355 357 351 351 355 353 354 356 358 360 358 354 353 351 349 349 348 347 345 342 340 339 336 332 332 333 329 322 315 310
134 124 105 79 75 85 90 107 114 117 221 158 130 138 131 113 129 150 136 122 120 117 118 116 111 111 112 113 111 106 102 100 96 94 92 89 86 84 81 77 73 69 65 63 61 56 53 49 44 40 36 32 26 21 19 15 15 16 12 11 10 5 2 1 1 359 356 358 357 353 355 356 354 356 359 0 359 357 353 350 352 352 350 350 349 347 345 343 341 337 333 332 331 329 326 321 315
166 70 62 51 33 27 37 38 53 62 236 156 141 159 158 122 141 161 133 122 125 125 125 123 122 122 118 116 115 109 105 101 97 95 93 91 87 83 79 74 69 65 61 59 59 57 52 46 41 36 33 29 22 17 15 13 11 11 12 12 11 9 5 2 3 360 358 -0 357 356 357 356 355 356 1 -0 355 356 353 350 354 354 353 354 352 353 355 353 349 345 341 337 332 331 330 325 319
107 70 75 68 24 350 18 46 44 29 219 156 134 128 94 113 147 133 126 131 133 132 134 131 129 127 122 118 114 111 107 102 99 97 94 92 87 81 77 72 66 61 57 55 56 56 51 44 35 30 28 24 18 15 13 12 10 8 9 12 11 11 8 5 4 360 359 0 357 358 357 356 356 356 360 359 354 356 354 351 356 355 356 357 352 356 2 360 356 352 349 346 339 335 332 329 324
109 96 106 94 137 263 102 133 93 110 220 174 131 119 91 93 114 125 130 132 135 136 136 134 132 127 122 118 114 110 106 101 100 99 95 91 86 80 75 70 65 59 55 53 52 51 46 40 34 30 27 20 16 15 11 11 14 10 8 10 10 10 9 6 4 360 359 -0 357 358 357 355 356 355 357 357 354 354 353 355 0 357 355 355 353 359 4 2 1 357 352 349 345 340 335 330 325
115 115 125 125 195 195 96 175 124 124 223 178 130 127 106 94 112 136 130 125 131 131 129 131 133 130 124 120 116 109 103 101 101 99 95 89 83 79 75 70 65 60 56 55 51 46 42 36 32 29 23 17 15 17 13 11 15 12 10 14 12 11 8 4 5 1 0 2 359 358 357 355 356 355 356 355 352 352 354 0 4 356 353 354 355 2 4 3 3 1 357 352 346 343 338 332 326
101 140 173 190 204 190 35 264 101 110 200 163 128 129 114 120 141 141 131 132 135 131 129 131 131 127 122 118 114 109 105 103 100 97 92 88 83 76 72 68 64 60 58 57 52 46 42 33 26 23 20 17 16 19 17 12 14 13 13 17 15 13 10 7 8 5 4 5 -0 358 358 356 357 357 356 354 352 353 354 359 1 353 352 355 357 1 3 2 2 1 1 356 349 345 341 335 328
90 167 188 201 201 193 206 8 54 92 122 171 124 111 110 130 138 135 136 137 134 132 134 136 134 128 122 118 116 112 109 104 100 97 91 87 83 76 72 67 62 58 54 53 51 46 43 33 27 23 18 16 16 19 18 12 14 15 14 17 17 16 14 13 14 11 10 9 2 359 358 356 358 358 356 354 354 355 355 356 358 353 351 354 359 2 2 360 358 359 0 358 353 347 345 341 334
10 326 232 255 257 235 235 325 51 81 112 169 123 116 129 132 134 143 147 141 139 140 141 140 137 130 125 124 120 113 106 102 98 95 89 85 81 76 74 69 64 60 52 49 44 38 34 28 27 25 20 16 14 17 17 13 16 17 16 19 20 19 17 16 16 13 13 11 4 -0 358 356 358 358 355 355 355 356 355 356 359 355 351 354 359 0 359 356 355 356 358 357 354 348 345 344 338
181 215 208 255 281 283 321 315 243 95 121 183 136 137 145 136 146 161 157 156 156 151 146 144 138 134 133 126 118 112 107 104 100 96 90 84 80 74 72 68 65 61 55 51 42 31 25 20 23 26 24 17 12 14 17 15 16 18 18 20 20 18 16 15 14 13 12 10 4 359 356 356 358 357 355 355 356 356 355 356 359 355 352 354 355 354 354 354 354 354 354 356 354 348 344 341 338
204 234 211 216 262 299 33 344 293 88 118 157 119 129 137 160 179 164 166 173 165 154 150 148 143 140 134 124 120 118 115 111 105 100 91 84 81 76 71 66 62 57 52 51 43 32 27 17 17 26 27 18 11 13 17 16 16 17 17 17 17 15 13 12 11 10 9 6 2 357 355 356 357 355 355 355 356 356 355 357 358 355 352 352 349 348 350 352 353 354 354 354 353 348 344 342 340
205 243 239 202 169 113 158 209 270 345 131 158 130 129 145 190 192 171 173 175 163 156 157 152 147 144 138 131 128 123 120 119 109 102 95 88 86 79 71 63 56 53 48 46 41 33 31 22 16 24 28 21 14 12 13 16 15 12 12 13 13 11 10 10 8 7 4 360 358 357 354 356 356 355 356 355 356 357 357 358 358 353 349 348 347 347 349 351 353 354 354 354 352 348 347 347 344
214 256 269 225 102 64 264 216 90 356 307 131 151 173 156 173 192 179 166 162 164 162 158 154 149 148 144 137 133 125 119 114 107 103 100 95 90 79 71 63 55 51 45 44 40 33 33 29 19 21 24 23 18 12 11 13 12 10 8 8 9 7 7 6 4 4 1 356 357 357 355 357 357 357 357 355 357 0 359 0 359 349 345 347 348 349 351 353 355 356 355 354 353 352 352 351 346
231 258 275 296 32 61 286 301 61 58 298 317 154 146 139 178 197 176 156 156 168 162 154 153 150 150 147 136 131 126 117 109 107 106 100 94 87 74 69 65 60 54 45 43 41 35 34 32 24 20 21 22 19 15 12 8 10 10 7 7 7 5 5 3 359 1 360 356 358 358 357 359 358 358 359 358 1 3 1 3 359 347 344 347 349 351 353 355 357 356 355 356 356 356 357 354 350